STARLINK-35423, 65873

Orbit data source: Space-Track

STARLINK-35423, 65873 is a payload satellite owned by SpaceX/Seattle (US) in LEO that was launched on Fri, 03 Oct 2025 UTC via an FALCON 9 launch vehicle from the Air Force Western Test Range (AFWTR). Payload-class satellites include a variety of spacecraft equipped with specific instruments for various scientific and technological missions. These include communications satellites like Starlink; space stations such as the ISS; scientific satellites like the Hubble; Earth observation satellites from companies like Planet Labs, Umbra, and HawkEye 360; GPS; miniature CubeSats for education and research; and military/defense satellites.

Loading next visibility...
Identifier
65873, 2025-223V
Orbit
LEO
Country
Flag of USUS
Related business
Manufacturer
SpaceX/Seattle
Mission
Operational spacecraft
Bus & Motor
STARLINK V2MO, Unknown motor
Mass
575 kg wet, ~530 kg dry
Launch date (UTC)
2025-10-03 (2 weeks ago)
Launch vehicle
FALCON 9
Launch site
Air Force Western Test Range (AFWTR)
Object type
Payload
Rocket body
Debris
Shape & HBR
Unknown
Radar Cross Section
RCS unknown

Expand to show TLE details & history
Last TLE update: 15 hours ago

TLE from 15 hours ago
0 STARLINK-35423
1 65873U 25223V   25290.82447828 -.00535544  00000-0 -44235-2 0  9992
2 65873  53.1535 241.9369 0001114 126.2288 233.8833 15.71189177  2271
Epoch: 2025-10-17T19:47Z
TLE epoch observation values (Epoch: 2025-10-17T19:47:14.923Z)
Latitude
-0.00006°
Longitude
-81.43963°
Altitude
356.854 km
Speed
7.696 km/s
True Right ascension
16h 07m 44s
True Declination
0° 00' 00"
Sunlit
Object was in daylight at epoch
Visualization orbit readout
Latitude
Unknown
Longitude
Unknown
Altitude
Unknown
Speed
Unknown
Apparent Right ascension
Unknown
Apparent Declination
Unknown
Sunlit
N/A
Visualization observer readout
Local Sidereal Time
05:50:59
Azimuth
Unknown
Elevation
Unknown
Doppler factor
Unknown
Orbital elements
Apogee altitude
356.509 km
Perigee altitude
355.009 km
Semi-major axis
6,733.896 km
Eccentricity
0.00011
Inclination
53.1535°
RAAN
241.9369°
Arg. of periapsis
126.2288°
True anomaly
233.87299°
Mean anomaly
233.8833°
Eccentric anomaly
233.87814°
Mean motion
3.92775 °/min
Orbital period
91.66 mins
BSTAR
-0.0044235
Loading maneuver chart data...
Computing Atmospheric mass density...
Loading historical data...
Loading historical data...
Loading historical data...
Loading historical data...
Loading historical data...
Loading historical data...
Loading historical data...

Documentation

Showing up to 5 results
|